Weather History for Stanley, ND

Change the Weather History Date:

Friday, April 11, 2014

  Actual Average (KMOT) Record (KMOT)
Temperature  
Mean Temperature 38 °F 41 °F  
Max Temperature 53 °F 53 °F 81 °F (1949)
Min Temperature 24 °F 30 °F 4 °F (1957)
Degree Days  
Heating Degree Days 26 24  
Month to date heating degree days 289  
Since 1 July heating degree days 8004  
Cooling Degree Days 0 0  
Month to date cooling degree days 0  
Year to date cooling degree days 0  
Moisture  
Dew Point 27 °F    
Average Humidity 62    
Maximum Humidity 100    
Minimum Humidity 30    
Precipitation  
Precipitation 0.00 in 0.03 in 1.09 in (1984)
Month to date precipitation 0.34  
Year to date precipitation 2.09  
Sea Level Pressure  
Sea Level Pressure 29.85 in    
Wind  
Wind Speed 5 mph (SE)    
Max Wind Speed 16 mph    
Max Gust Speed 23 mph    
Visibility 10 miles    
Events      
T = Trace of Precipitation, MM = Missing Value Source: NWS Daily Summary

Daily Weather History Graph

Daily Weather History Graph

Search for Another Location

Airport:

Trip Planner

Search our weather history database for the weather conditions in past years. The results will help you decide how hot, cold, wet, or windy it might be!

Date:

Astronomy

Apr. 11, 2014 Rise Set
Actual Time 7:07 AM CDT 8:34 PM CDT
Civil Twilight 6:34 AM CDT 9:07 PM CDT
Nautical Twilight 5:55 AM CDT 9:46 PM CDT
Astronomical Twilight 5:13 AM CDT 10:29 PM CDT
Moon 5:02 PM CDT (4/11) 5:20 AM CDT (4/11)
Length of Visible Light 14h 32m
Length of Day
13h 27m
Waxing Gibbous, 87% of the Moon is Illuminated
Apr 11
Waxing Gibbous
Apr 15
Full
Apr 22
Last Quarter
Apr 29
New
May 6
First Quarter

Hourly Weather History & Observations

Time (CDT) Temp. Windchill Dew Point Humidity Pressure Visibility Wind Dir Wind Speed Gust Speed Precip Events Conditions
12:15 AM 35.6 °F - 24.8 °F 65% 29.86 in 10.0 mi Calm Calm - N/A   Overcast
12:35 AM 32.0 °F - 24.8 °F 75% 29.86 in 10.0 mi Calm Calm - N/A   Mostly Cloudy
12:55 AM 32.0 °F 27.5 °F 23.0 °F 69% 29.86 in 10.0 mi SW 4.6 mph - N/A   Mostly Cloudy
1:15 AM 30.2 °F - 26.6 °F 86% 29.86 in 10.0 mi Calm Calm - N/A   Scattered Clouds
1:35 AM 32.0 °F - 24.8 °F 75% 29.86 in 10.0 mi Calm Calm - N/A   Clear
1:55 AM 30.2 °F - 26.6 °F 86% 29.86 in 10.0 mi Calm Calm - N/A   Clear
2:15 AM 28.4 °F - 26.6 °F 93% 29.87 in 10.0 mi Calm Calm - N/A   Clear
2:35 AM 28.4 °F - 26.6 °F 93% 29.87 in 10.0 mi Calm Calm - N/A   Clear
2:55 AM 26.6 °F 21.2 °F 23.0 °F 86% 29.87 in 10.0 mi SW 4.6 mph - N/A   Clear
3:15 AM 24.8 °F 20.5 °F 23.0 °F 93% 29.86 in 10.0 mi SW 3.5 mph - N/A   Clear
3:35 AM 26.6 °F 19.1 °F 23.0 °F 86% 29.86 in 10.0 mi SW 6.9 mph - N/A   Clear
3:55 AM 24.8 °F 16.9 °F 23.0 °F 93% 29.86 in 10.0 mi SW 6.9 mph - N/A   Clear
4:15 AM 26.6 °F 21.2 °F 23.0 °F 86% 29.86 in 10.0 mi WSW 4.6 mph - N/A   Clear
4:35 AM 28.4 °F 21.2 °F 24.8 °F 86% 29.86 in 10.0 mi SW 6.9 mph - N/A   Clear
4:55 AM 32.0 °F 26.4 °F 24.8 °F 75% 29.86 in 10.0 mi SW 5.8 mph - N/A   Clear
5:15 AM 32.0 °F 26.4 °F 24.8 °F 75% 29.86 in 10.0 mi WSW 5.8 mph - N/A   Clear
5:35 AM 32.0 °F 26.4 °F 26.6 °F 80% 29.85 in 10.0 mi SW 5.8 mph - N/A   Clear
5:55 AM 30.2 °F 22.6 °F 24.8 °F 80% 29.85 in 10.0 mi West 8.1 mph - N/A   Clear
6:15 AM 30.2 °F 22.6 °F 26.6 °F 86% 29.85 in 10.0 mi West 8.1 mph - N/A   Clear
6:35 AM 32.0 °F 24.2 °F 26.6 °F 80% 29.86 in 10.0 mi West 9.2 mph - N/A   Clear
6:55 AM 32.0 °F 24.2 °F 26.6 °F 80% 29.86 in 10.0 mi West 9.2 mph - N/A   Clear
7:15 AM 32.0 °F 23.0 °F 26.6 °F 80% 29.86 in 10.0 mi WNW 11.5 mph - N/A   Clear
7:55 AM 32.0 °F 23.0 °F 26.6 °F 80% 29.87 in 10.0 mi WNW 11.5 mph - N/A   Clear
8:15 AM 32.0 °F 24.2 °F 26.6 °F 80% 29.88 in 10.0 mi NW 9.2 mph - N/A   Clear
8:35 AM 35.6 °F 27.5 °F 26.6 °F 70% 29.88 in 10.0 mi NNW 11.5 mph - N/A   Clear
8:55 AM 37.4 °F 29.3 °F 26.6 °F 65% 29.89 in 10.0 mi NNW 12.7 mph - N/A   Clear
9:15 AM 39.2 °F 31.2 °F 26.6 °F 61% 29.89 in 10.0 mi NNW 13.8 mph 17.3 mph N/A   Clear
9:35 AM 41.0 °F 34.3 °F 26.6 °F 57% 29.90 in 10.0 mi North 11.5 mph - N/A   Clear
9:55 AM 41.0 °F 34.7 °F 26.6 °F 57% 29.90 in 10.0 mi North 10.4 mph - N/A   Clear
10:15 AM 44.6 °F 39.7 °F 26.6 °F 49% 29.91 in 10.0 mi North 9.2 mph - N/A   Clear
10:35 AM 46.4 °F 43.5 °F 26.6 °F 46% 29.91 in 10.0 mi NE 5.8 mph - N/A   Clear
10:55 AM 48.2 °F - 24.8 °F 40% 29.90 in 10.0 mi NE 5.8 mph - N/A   Clear
11:15 AM 48.2 °F - 24.8 °F 40% 29.91 in 10.0 mi NNE 6.9 mph - N/A   Clear
11:35 AM 48.2 °F - 24.8 °F 40% 29.90 in 10.0 mi NNE 8.1 mph - N/A   Clear
11:55 AM 50.0 °F - 24.8 °F 37% 29.90 in 10.0 mi NNE 6.9 mph - N/A   Clear
12:15 PM 50.0 °F - 24.8 °F 37% 29.90 in 10.0 mi ENE 4.6 mph - N/A   Partly Cloudy
12:35 PM 50.0 °F - 23.0 °F 35% 29.90 in 10.0 mi Calm Calm - N/A   Partly Cloudy
12:55 PM 51.8 °F - 23.0 °F 33% 29.89 in 10.0 mi Calm Calm - N/A   Scattered Clouds
1:15 PM 50.0 °F - 23.0 °F 35% 29.88 in 10.0 mi North 6.9 mph - N/A   Partly Cloudy
1:35 PM 51.8 °F - 23.0 °F 33% 29.87 in 10.0 mi NNE 5.8 mph - N/A   Partly Cloudy
1:55 PM 51.8 °F - 23.0 °F 33% 29.87 in 10.0 mi SE 3.5 mph - N/A   Scattered Clouds
2:15 PM 51.8 °F - 23.0 °F 33% 29.87 in 10.0 mi East 3.5 mph - N/A   Clear
2:35 PM 51.8 °F - 23.0 °F 33% 29.86 in 10.0 mi Calm Calm - N/A   Clear
2:55 PM 51.8 °F - 23.0 °F 33% 29.85 in 10.0 mi Calm Calm - N/A   Clear
3:15 PM 53.6 °F - 23.0 °F 30% 29.85 in 10.0 mi East 5.8 mph - N/A   Clear
3:35 PM 53.6 °F - 23.0 °F 30% 29.84 in 10.0 mi SE 8.1 mph - N/A   Clear
3:55 PM 51.8 °F - 23.0 °F 33% 29.84 in 10.0 mi Calm Calm - N/A   Partly Cloudy
4:15 PM 51.8 °F - 24.8 °F 35% 29.84 in 10.0 mi WNW 4.6 mph - N/A   Clear
4:35 PM 51.8 °F - 24.8 °F 35% 29.83 in 10.0 mi ESE 6.9 mph - N/A   Clear
4:55 PM 51.8 °F - 24.8 °F 35% 29.82 in 10.0 mi ESE 8.1 mph - N/A   Clear
5:15 PM 50.0 °F - 24.8 °F 37% 29.82 in 10.0 mi South 16.1 mph 23.0 mph N/A   Scattered Clouds
5:35 PM 50.0 °F - 26.6 °F 40% 29.82 in 10.0 mi SSE 13.8 mph 19.6 mph N/A   Scattered Clouds
5:55 PM 48.2 °F - 26.6 °F 43% 29.82 in 10.0 mi SSE 10.4 mph - N/A   Partly Cloudy
6:15 PM 48.2 °F - 28.4 °F 46% 29.82 in 10.0 mi SE 10.4 mph - N/A   Clear
6:35 PM 50.0 °F - 26.6 °F 40% 29.82 in 10.0 mi ESE 9.2 mph - N/A   Scattered Clouds
6:55 PM 48.2 °F - 26.6 °F 43% 29.82 in 10.0 mi SSW 9.2 mph - N/A   Partly Cloudy
7:15 PM 48.2 °F - 28.4 °F 46% 29.82 in 10.0 mi SE 6.9 mph - N/A   Scattered Clouds
7:35 PM 46.4 °F 41.1 °F 28.4 °F 50% 29.82 in 10.0 mi ESE 11.5 mph 23.0 mph N/A   Mostly Cloudy
7:55 PM 46.4 °F 41.5 °F 28.4 °F 50% 29.82 in 10.0 mi SE 10.4 mph 18.4 mph N/A   Mostly Cloudy
8:15 PM 44.6 °F 39.7 °F 30.2 °F 57% 29.82 in 10.0 mi SSE 9.2 mph - N/A   Overcast
8:35 PM 44.6 °F 38.1 °F 32.0 °F 61% 29.82 in 10.0 mi SSE 13.8 mph - N/A   Overcast
8:55 PM 42.8 °F 37.0 °F 35.6 °F 76% 29.82 in 10.0 mi SE 10.4 mph - N/A   Overcast
9:15 PM 41.0 °F 34.7 °F 37.4 °F 87% 29.81 in 10.0 mi SE 10.4 mph - N/A   Overcast
9:35 PM 39.2 °F 33.0 °F 39.2 °F 100% 29.80 in 10.0 mi SE 9.2 mph - N/A   Overcast
9:55 PM 39.2 °F 32.5 °F 37.4 °F 93% 29.79 in 10.0 mi ESE 10.4 mph - N/A   Overcast
10:15 PM 39.2 °F 32.0 °F 37.4 °F 93% 29.78 in 10.0 mi ESE 11.5 mph 16.1 mph N/A   Overcast
10:35 PM 39.2 °F 32.0 °F 35.6 °F 87% 29.78 in 10.0 mi ESE 11.5 mph - N/A   Overcast
10:55 PM 39.2 °F 32.0 °F 35.6 °F 87% 29.77 in 10.0 mi ESE 11.5 mph - N/A   Overcast
11:15 PM 39.2 °F 31.6 °F 33.8 °F 81% 29.77 in 10.0 mi ESE 12.7 mph - N/A   Overcast
11:35 PM 39.2 °F 33.0 °F 33.8 °F 81% 29.77 in 10.0 mi ESE 9.2 mph - N/A   Overcast
11:55 PM 39.2 °F 31.2 °F 35.6 °F 87% 29.75 in 10.0 mi ESE 13.8 mph 20.7 mph N/A   Overcast